Ainsworth, NE

7:03 PM CDT on July 27, 2017 (GMT -0500)
Ainsworth Municipal

Weather History for KANW - February, 2013

Change the Weather History Date:

Friday, February 15, 2013

  Actual Average Record
Temperature  
Mean Temperature 20 °F -  
Max Temperature 28 °F 38 °F 64 °F (2011)
Min Temperature 11 °F 19 °F -14 °F (2007)
Degree Days  
Heating Degree Days 46    
Moisture  
Dew Point 12 °F    
Average Humidity 73    
Maximum Humidity 86    
Minimum Humidity 49    
Precipitation  
Precipitation 0.00 in - - ()
Sea Level Pressure  
Sea Level Pressure 30.28 in    
Wind  
Wind Speed 9 mph (WNW)    
Max Wind Speed 24 mph    
Max Gust Speed 32 mph    
Visibility 10 miles    
Events Snow    
Averages and records for this station are not official NWS values.
T = Trace of Precipitation, MM = Missing Value Source: NWS Daily Summary

Daily Weather History Graph

Daily Weather History Graph

Search for Another Location

Airport or City:

Trip Planner

Search our weather history database for the weather conditions in past years. The results will help you decide how hot, cold, wet, or windy it might be!

Date:

Astronomy

Feb. 15, 2013 Rise Set
Actual Time 7:36 AM CST 6:12 PM CST
Civil Twilight 7:07 AM CST 6:41 PM CST
Nautical Twilight 6:34 AM CST 7:14 PM CST
Astronomical Twilight 6:01 AM CST 7:46 PM CST
Moon 10:04 AM CST (2/15) No Moon Set
Length of Visible Light 11h 33m
Length of Day
10h 36m
Waxing Crescent, 30% of the Moon is Illuminated
Feb 15
Waxing Crescent
Feb 17
First Quarter
Feb 25
Full
Mar 4
Last Quarter
Mar 11
New

Hourly Weather History & Observations

Time (CST) Temp. Windchill Dew Point Humidity Pressure Visibility Wind Dir Wind Speed Gust Speed Precip Events Conditions
12:15 AM 14.0 °F 6.5 °F 10.4 °F 86% 30.28 in 10.0 mi WSW 4.6 mph - N/A   Clear
12:35 AM 14.2 °F 3.1 °F 10.4 °F 85% 30.29 in 10.0 mi SW 8.1 mph - N/A   Mostly Cloudy
12:55 AM 14.7 °F 3.8 °F 10.4 °F 83% 30.29 in 10.0 mi WSW 8.1 mph - N/A   Mostly Cloudy
1:15 AM 14.4 °F 6.9 °F 10.2 °F 84% 30.29 in 10.0 mi WSW 4.6 mph - N/A   Scattered Clouds
1:35 AM 14.4 °F 4.3 °F 10.2 °F 84% 30.28 in 10.0 mi WSW 6.9 mph - N/A   Clear
1:55 AM 14.9 °F 3.1 °F 11.1 °F 85% 30.28 in 10.0 mi WSW 9.2 mph - N/A   Mostly Cloudy
2:15 AM 15.8 °F 5.1 °F 10.4 °F 79% 30.27 in 10.0 mi WSW 8.1 mph - N/A   Scattered Clouds
2:35 AM 14.7 °F 3.8 °F 10.8 °F 84% 30.28 in 10.0 mi WSW 8.1 mph - N/A   Scattered Clouds
2:55 AM 16.2 °F 6.5 °F 12.2 °F 84% 30.26 in 10.0 mi West 6.9 mph - N/A   Scattered Clouds
3:15 AM 16.5 °F 8.1 °F 12.6 °F 84% 30.27 in 10.0 mi West 5.8 mph - N/A   Mostly Cloudy
3:35 AM 19.9 °F 11.1 °F 15.6 °F 83% 30.26 in 10.0 mi West 6.9 mph - N/A   Overcast
3:55 AM 19.4 °F 8.6 °F 15.8 °F 86% 30.26 in 10.0 mi West 9.2 mph - N/A   Overcast
4:15 AM 19.4 °F 9.5 °F 14.0 °F 80% 30.25 in 10.0 mi WSW 8.1 mph - N/A   Scattered Clouds
4:35 AM 17.1 °F 7.6 °F 13.1 °F 84% 30.25 in 10.0 mi West 6.9 mph - N/A   Clear
4:55 AM 16.5 °F 5.1 °F 12.6 °F 84% 30.25 in 10.0 mi WSW 9.2 mph - N/A   Clear
5:15 AM 15.8 °F 5.1 °F 12.0 °F 85% 30.25 in 10.0 mi West 8.1 mph - N/A   Clear
5:35 AM 16.5 °F 5.1 °F 12.7 °F 85% 30.26 in 10.0 mi West 9.2 mph - N/A   Clear
5:55 AM 17.1 °F 5.8 °F 12.9 °F 84% 30.25 in 10.0 mi West 9.2 mph - N/A   Clear
6:15 AM 16.7 °F 4.5 °F 12.0 °F 82% 30.25 in 10.0 mi West 10.4 mph - N/A   Clear
6:35 AM 16.3 °F 4.1 °F 11.7 °F 82% 30.25 in 10.0 mi West 10.4 mph - N/A   Scattered Clouds
6:55 AM 18.5 °F 6.8 °F 13.1 °F 79% 30.25 in 10.0 mi West 10.4 mph - N/A   Mostly Cloudy
7:15 AM 19.2 °F 8.4 °F 13.6 °F 79% 30.25 in 10.0 mi West 9.2 mph - N/A   Overcast
7:35 AM 19.2 °F 8.4 °F 13.1 °F 77% 30.25 in 10.0 mi West 9.2 mph - N/A   Mostly Cloudy
7:55 AM 18.1 °F 10.0 °F 12.4 °F 78% 30.26 in 10.0 mi West 5.8 mph - N/A   Scattered Clouds
8:15 AM 17.6 °F 10.7 °F 12.2 °F 79% 30.26 in 10.0 mi West 4.6 mph - N/A   Mostly Cloudy
8:35 AM 18.9 °F 8.8 °F 13.1 °F 78% 30.26 in 10.0 mi West 8.1 mph - N/A   Overcast
8:55 AM 19.8 °F 11.9 °F 13.5 °F 77% 30.27 in 10.0 mi West 5.8 mph - N/A   Mostly Cloudy
9:15 AM 20.5 °F 10.8 °F 14.0 °F 76% 30.27 in 10.0 mi West 8.1 mph - N/A   Scattered Clouds
9:35 AM 21.9 °F 11.0 °F 14.5 °F 73% 30.28 in 10.0 mi WNW 10.4 mph - N/A   Clear
9:55 AM 23.5 °F 11.3 °F 14.5 °F 69% 30.28 in 10.0 mi NW 13.8 mph 18.4 mph N/A   Mostly Cloudy
10:15 AM 23.7 °F 10.5 °F 14.2 °F 67% 30.28 in 10.0 mi NW 16.1 mph 21.9 mph N/A   Overcast
10:35 AM 24.8 °F 10.7 °F 15.6 °F 68% 30.29 in 10.0 mi NW 19.6 mph 23.0 mph N/A   Overcast
10:55 AM 25.0 °F 10.9 °F 14.5 °F 65% 30.29 in 10.0 mi NW 19.6 mph 28.8 mph N/A   Mostly Cloudy
11:15 AM 25.9 °F 11.1 °F 14.0 °F 61% 30.29 in 10.0 mi NNW 23.0 mph 32.2 mph N/A   Scattered Clouds
11:55 AM 27.3 °F 13.0 °F 14.5 °F 59% 30.31 in 10.0 mi NNW 23.0 mph 29.9 mph N/A   Scattered Clouds
12:15 PM 27.3 °F 14.4 °F 14.9 °F 60% 30.30 in 10.0 mi NNW 18.4 mph 25.3 mph N/A   Mostly Cloudy
12:35 PM 27.3 °F 14.0 °F 14.4 °F 58% 30.30 in 10.0 mi NNW 19.6 mph - N/A   Overcast
12:55 PM 26.8 °F 13.3 °F 13.5 °F 57% 30.30 in 10.0 mi NNW 19.6 mph 25.3 mph N/A   Overcast
1:15 PM 27.3 °F 13.0 °F 13.6 °F 56% 30.30 in 10.0 mi NNW 23.0 mph 27.6 mph N/A   Overcast
1:35 PM 28.4 °F 14.1 °F 11.7 °F 50% 30.30 in 10.0 mi NNW 24.2 mph 29.9 mph N/A   Overcast
1:55 PM 27.5 °F 13.5 °F 10.6 °F 49% 30.30 in 10.0 mi North 21.9 mph 28.8 mph N/A   Overcast
2:15 PM 27.5 °F 13.9 °F 10.6 °F 49% 30.29 in 10.0 mi NNW 20.7 mph 28.8 mph N/A   Overcast
2:35 PM 27.5 °F 13.5 °F 10.9 °F 50% 30.29 in 10.0 mi North 21.9 mph 26.5 mph N/A   Overcast
2:55 PM 26.8 °F 13.7 °F 11.1 °F 52% 30.29 in 10.0 mi NNW 18.4 mph 31.1 mph N/A   Overcast
3:15 PM 27.5 °F 15.0 °F 12.0 °F 52% 30.29 in 10.0 mi NNW 17.3 mph 23.0 mph N/A   Overcast
3:35 PM 26.2 °F 13.0 °F 14.0 °F 60% 30.30 in 10.0 mi NNW 18.4 mph - N/A   Overcast
3:55 PM 27.5 °F 14.2 °F 11.7 °F 51% 30.30 in 10.0 mi NNW 19.6 mph 26.5 mph N/A Snow Light Snow
4:15 PM 27.0 °F 12.2 °F 11.1 °F 51% 30.30 in 10.0 mi NNW 24.2 mph - N/A   Overcast
4:35 PM 25.5 °F 11.6 °F 15.1 °F 65% 30.30 in 10.0 mi North 19.6 mph 25.3 mph N/A   Mostly Cloudy
4:55 PM 25.9 °F 13.8 °F 15.8 °F 66% 30.30 in 10.0 mi North 15.0 mph 21.9 mph N/A   Clear
5:15 PM 24.8 °F 14.0 °F 15.3 °F 67% 30.31 in 10.0 mi NNW 11.5 mph - N/A   Clear
5:35 PM 25.3 °F 14.7 °F 14.9 °F 65% 30.30 in 10.0 mi North 11.5 mph 17.3 mph N/A   Clear
5:55 PM 24.1 °F 14.4 °F 13.6 °F 64% 30.30 in 10.0 mi North 9.2 mph - N/A   Clear
6:15 PM 21.2 °F 14.9 °F 12.7 °F 70% 30.30 in 10.0 mi North 4.6 mph - N/A   Clear
6:35 PM 19.4 °F 12.8 °F 11.7 °F 72% 30.30 in 10.0 mi North 4.6 mph - N/A   Clear
6:55 PM 19.0 °F 12.3 °F 11.7 °F 73% 30.30 in 10.0 mi North 4.6 mph - N/A   Clear
7:15 PM 18.3 °F - 11.1 °F 73% 30.30 in 10.0 mi Calm Calm - N/A   Clear
7:35 PM 15.8 °F - 8.8 °F 74% 30.29 in 10.0 mi Calm Calm - N/A   Clear
7:55 PM 15.3 °F - 9.5 °F 78% 30.29 in 10.0 mi Calm Calm - N/A   Clear
8:15 PM 15.6 °F - 9.9 °F 78% 30.29 in 10.0 mi Calm Calm - N/A   Clear
8:35 PM 14.4 °F 8.6 °F 9.1 °F 80% 30.29 in 10.0 mi SSW 3.5 mph - N/A   Clear
8:55 PM 14.9 °F - 10.2 °F 82% 30.28 in 10.0 mi Calm Calm - N/A   Clear
9:15 PM 14.4 °F - 8.6 °F 78% 30.28 in 10.0 mi Calm Calm - N/A   Clear
9:35 PM 12.0 °F 4.1 °F 7.3 °F 81% 30.27 in 10.0 mi South 4.6 mph - N/A   Clear
9:55 PM 12.6 °F 3.4 °F 8.8 °F 85% 30.26 in 10.0 mi SSW 5.8 mph - N/A   Clear
10:15 PM 11.5 °F 0.9 °F 7.0 °F 82% 30.26 in 10.0 mi SSW 6.9 mph - N/A   Clear
10:35 PM 13.6 °F 4.6 °F 9.3 °F 83% 30.26 in 10.0 mi SSW 5.8 mph - N/A   Clear
10:55 PM 12.0 °F 2.7 °F 7.5 °F 82% 30.24 in 10.0 mi South 5.8 mph - N/A   Clear
11:15 PM 12.0 °F 1.5 °F 7.7 °F 83% 30.23 in 10.0 mi South 6.9 mph - N/A   Clear
11:35 PM 13.3 °F 3.0 °F 8.6 °F 82% 30.23 in 10.0 mi SSW 6.9 mph - N/A   Clear
11:55 PM 15.4 °F 3.8 °F 10.4 °F 80% 30.22 in 10.0 mi SSW 9.2 mph - N/A   Clear